COSMOS 1275 DEB, 18601

Orbit data source: Space-Track

COSMOS 1275 DEB, 18601 is space debris in LEO originally from a launch on Thu, 04 Jun 1981 UTC launched from the Plesetsk Missile And Space Complex (PKMTR). Debris objects in space refer to the collection of defunct objects orbiting the Earth. Examples of debris include non-operational satellites, rocket bodies, and fragments generated from explosions, collisions, or faulty payload assembly.

Loading next visibility...
Identifier
18601, 1981-053LW
Orbit
LEO
Country
Flag of CISCIS
Related business
Manufacturer
Unknown
Mission
Spacecraft
Bus & Motor
Unknown
Mass
Unknown
Launch date (UTC)
1981-06-04 (44 years ago)
Launch vehicle
Unknown
Launch site
Plesetsk Missile And Space Complex (PKMTR)
Object type
Payload
Rocket body
Debris
Shape & HBR
Unknown shape, 0.1 m
Radar Cross Section
Small (<0.1 m²)

Expand to show TLE details & history
Last TLE update: 2 days ago

TLE from 2 days ago
0 COSMOS 1275 DEB
1 18601U 81053LW  25285.27271839  .00005199  00000-0  23660-2 0  9997
2 18601  82.7843 219.6078 0050427 158.3679 355.8646 14.20883799945916
Epoch: 2025-10-12T06:32Z
TLE epoch observation values (Epoch: 2025-10-12T06:32:42.868Z)
Latitude
25.62225°
Longitude
-83.12567°
Altitude
789.292 km
Speed
7.48 km/s
True Right ascension
02h 24m 34s
True Declination
25° 29' 20"
Sunlit
Object was in full shadow at epoch
Visualization orbit readout
Latitude
Unknown
Longitude
Unknown
Altitude
Unknown
Speed
Unknown
Apparent Right ascension
Unknown
Apparent Declination
Unknown
Sunlit
N/A
Visualization observer readout
Local Sidereal Time
05:42:59
Azimuth
Unknown
Elevation
Unknown
Doppler factor
Unknown
Orbital elements
Apogee altitude
855.752 km
Perigee altitude
783.162 km
Semi-major axis
7,197.594 km
Eccentricity
0.00504
Inclination
82.7843°
RAAN
219.6078°
Arg. of periapsis
158.3679°
True anomaly
355.82267°
Mean anomaly
355.8646°
Eccentric anomaly
355.84366°
Mean motion
3.55437 °/min
Orbital period
101.28 mins
BSTAR
0.002366
Loading maneuver chart data...
Computing Atmospheric mass density...

Documentation

Showing up to 5 results
|